This is the latest recevied weather packets stored in our database for station/object DB0MOD. If no packets are shown the sender has not sent any weather packets the latest 10 day(s).
| Time | Temp. | Humidity | Pressure | Rain* | Wind** | Luminosity | Snow |
|---|---|---|---|---|---|---|---|
| 1777995543 | 17.22° C | 41% | 1008.3 hPa | 0 mm | - | - | - |
| 1777995243 | 17.78° C | 41% | 1008.4 hPa | 0 mm | - | - | - |
| 1777994943 | 18.33° C | 41% | 1008.3 hPa | 0 mm | - | - | - |
| 1777994643 | 18.89° C | 40% | 1008.3 hPa | 0 mm | - | - | - |
| 1777994343 | 18.89° C | 40% | 1008.3 hPa | 0 mm | - | - | - |
| 1777994043 | 18.89° C | 42% | 1008.3 hPa | 0 mm | - | - | - |
| 1777993743 | 19.44° C | 42% | 1008.3 hPa | 0 mm | - | - | - |
| 1777993443 | 19.44° C | 42% | 1008.3 hPa | 0 mm | - | - | - |
| 1777993143 | 19.44° C | 42% | 1008.1 hPa | 0 mm | - | - | - |
| 1777992843 | 19.44° C | 42% | 1008.1 hPa | 0 mm | - | - | - |
| 1777992543 | 19.44° C | 41% | 1008.3 hPa | 0 mm | - | - | - |
| 1777992243 | 19.44° C | 41% | 1008.1 hPa | 0 mm | - | - | - |
| 1777991943 | 19.44° C | 41% | 1008.1 hPa | 0 mm | - | - | - |
| 1777991643 | 19.44° C | 39% | 1008.2 hPa | 0 mm | - | - | - |
| 1777991343 | 18.89° C | 40% | 1008.4 hPa | 0 mm | - | - | - |
| 1777991043 | 19.44° C | 42% | 1008.3 hPa | 0 mm | - | - | - |
| 1777990743 | 20° C | 41% | 1008.2 hPa | 0 mm | - | - | - |
| 1777990443 | 20° C | 38% | 1008.3 hPa | 0 mm | - | - | - |
| 1777989843 | 19.44° C | 37% | 1008.3 hPa | 0 mm | - | - | - |
| 1777989543 | 20° C | 36% | 1008.3 hPa | 0 mm | - | - | - |
| 1777988943 | 20° C | 35% | 1008.3 hPa | 0 mm | - | - | - |
| 1777988643 | 20.56° C | 31% | 1008.2 hPa | 0 mm | - | - | - |
| 1777988343 | 20° C | 25% | 1008.4 hPa | 0 mm | - | - | - |
| 1777988044 | 19.44° C | 20% | 1008.5 hPa | 0 mm | - | - | - |
| 1777987743 | 19.44° C | 17% | 1008.3 hPa | 0 mm | - | - | - |
* Rain latest hour (hover to see other rain measurements)
** Current wind speed in m/s (hover to see current wind gust speed)